GW5238 Weather Reports


Display with metric or nautical units.
time (UTC)temp
F
wind
direction
speed
MPH
gust
MPH
rain 1hr
in
rain 24hr
in
rain mn
in
humidity
%
barometer
mb
20260510213934 66 250 0.0 1.0 0.00 0.00 0.00 76 1014.1
20260510213649 66 252 0.0 1.0 0.00 0.00 0.00 76 1014.2
20260510212921 67 217 1.0 1.0 0.00 0.00 0.00 76 1013.9
20260510212900 67 253 0.0 0.0 0.00 0.00 0.00 74 1013.9
20260510211908 67 257 0.0 1.0 0.00 0.00 0.00 73 1013.9
20260510211400 66 258 0.0 1.0 0.00 0.00 0.00 75 1014.0
20260510210855 66 250 0.0 1.0 0.00 0.00 0.00 77 1013.9
20260510210610 65 223 1.0 1.0 0.00 0.00 0.00 76 1014.1
20260510205843 66 246 0.0 1.0 0.00 0.00 0.00 75 1013.8
20260510205336 66 111 1.0 2.0 0.00 0.00 0.00 75 1013.8
20260510204831 66 244 0.0 1.0 0.00 0.00 0.00 75 1014.0
20260510204323 66 163 1.0 2.0 0.00 0.00 0.00 75 1013.9
20260510204038 65 262 1.0 3.0 0.00 0.00 0.00 75 1013.9
20260510203310 66 259 1.0 3.0 0.00 0.00 0.00 75 1013.7
20260510202805 65 252 0.0 2.0 0.00 0.00 0.00 76 1013.7
20260510202256 65 218 2.0 2.0 0.00 0.00 0.00 76 1013.7
20260510201748 65 263 1.0 3.0 0.00 0.00 0.00 77 1013.8
20260510201244 65 274 1.0 2.0 0.00 0.00 0.00 76 1013.8
20260510200738 64 195 1.0 2.0 0.00 0.00 0.00 77 1013.8
20260510200231 63 261 0.0 1.0 0.00 0.00 0.00 78 1014.1
20260510195726 62 228 2.0 2.0 0.00 0.00 0.00 80 1014.0
20260510195219 62 264 1.0 3.0 0.00 0.00 0.00 80 1014.0
20260510194714 62 253 1.0 1.0 0.00 0.00 0.00 81 1014.1
20260510194206 62 208 2.0 2.0 0.00 0.00 0.00 81 1014.1
20260510193701 62 262 0.0 2.0 0.00 0.00 0.00 82 1014.1
20260510193153 63 256 1.0 1.0 0.00 0.00 0.00 80 1014.2
20260510192905 63 228 1.0 2.0 0.00 0.00 0.00 80 1014.0
20260510192402 63 211 2.0 2.0 0.00 0.00 0.00 80 1014.1
20260510191626 64 264 0.0 1.0 0.00 0.00 0.00 79 1014.2
20260510191121 64 232 1.0 3.0 0.00 0.00 0.00 79 1014.2
20260510190617 64 243 0.0 2.0 0.00 0.00 0.00 79 1014.3
20260510190109 66 260 0.0 0.0 0.00 0.00 0.00 80 1014.2
20260510185604 65 250 0.0 1.0 0.00 0.00 0.00 78 1014.4
20260510185049 66 240 1.0 1.0 0.00 0.00 0.00 77 1014.4
20260510184542 66 231 1.0 2.0 0.00 0.00 0.00 74 1014.1
20260510184037 68 265 0.0 2.0 0.00 0.00 0.00 73 1014.3
20260510183528 68 246 0.0 2.0 0.00 0.00 0.00 80 1014.2
20260510183020 67 206 1.0 2.0 0.00 0.00 0.00 76 1014.2
20260510182516 69 251 1.0 2.0 0.00 0.00 0.00 71 1014.2
20260510182227 68 254 0.0 1.0 0.00 0.00 0.00 79 1014.1
20260510181503 72 262 0.0 1.0 0.00 0.00 0.00 67 1013.9
20260510180954 72 323 0.0 1.0 0.00 0.00 0.00 63 1013.9
20260510180450 67 236 1.0 3.0 0.00 0.00 0.00 76 1014.1
20260510175945 71 245 2.0 2.0 0.00 0.00 0.00 67 1014.1
20260510175437 72 169 2.0 3.0 0.00 0.00 0.00 66 1014.0
20260510174932 68 229 1.0 2.0 0.00 0.00 0.00 69 1014.3
20260510174645 67 271 3.0 3.0 0.00 0.00 0.00 73 1014.4
20260510173916 68 257 1.0 3.0 0.00 0.00 0.00 76 1014.6
20260510173411 67 242 3.0 3.0 0.00 0.00 0.00 70 1014.6
20260510172904 64 245 1.0 2.0 0.00 0.00 0.00 76 1014.4
20260510172359 65 246 2.0 3.0 0.00 0.00 0.00 77 1014.4
20260510171851 64 209 0.0 3.0 0.00 0.00 0.00 80 1014.4
20260510171346 63 245 1.0 3.0 0.00 0.00 0.00 81 1014.5
20260510170838 64 191 1.0 6.0 0.00 0.00 0.00 78 1014.3
20260510170332 63 265 1.0 3.0 0.00 0.00 0.00 80 1014.2
20260510165824 62 267 1.0 1.0 0.00 0.00 0.00 82 1014.4
20260510165316 62 251 1.0 2.0 0.00 0.00 0.00 82 1014.5
20260510164812 62 255 1.0 2.0 0.00 0.00 0.00 82 1014.7
20260510164303 62 191 3.0 4.0 0.00 0.00 0.00 81 1014.6
20260510163758 61 225 3.0 4.0 0.00 0.00 0.00 83 1014.4
20260510163250 62 265 2.0 3.0 0.00 0.00 0.00 82 1014.6
20260510162745 62 215 3.0 3.0 0.00 0.00 0.00 82 1014.6
20260510162237 62 214 2.0 4.0 0.00 0.00 0.00 82 1014.5
20260510161732 64 241 1.0 2.0 0.00 0.00 0.00 81 1014.5
20260510161224 63 245 1.0 2.0 0.00 0.00 0.00 82 1014.4
20260510160716 62 258 1.0 2.0 0.00 0.00 0.00 82 1014.5
20260510160212 61 200 1.0 2.0 0.00 0.00 0.00 83 1014.6
20260510155703 62 284 2.0 2.0 0.00 0.00 0.00 82 1014.4
20260510155158 60 160 1.0 1.0 0.00 0.00 0.00 84 1014.5
20260510154651 60 211 2.0 2.0 0.00 0.00 0.00 85 1014.7
20260510154145 59 275 1.0 2.0 0.00 0.00 0.00 85 1014.6
20260510153637 59 253 0.0 2.0 0.00 0.00 0.00 86 1014.7
20260510153132 59 260 1.0 2.0 0.00 0.00 0.00 87 1015.2
20260510152624 59 234 1.0 3.0 0.00 0.00 0.00 87 1015.1
20260510152116 58 259 1.0 2.0 0.00 0.00 0.00 87 1015.0
20260510151611 58 248 2.0 3.0 0.00 0.00 0.00 87 1015.0
20260510151103 59 260 0.0 2.0 0.00 0.00 0.00 86 1015.0
20260510150559 59 258 0.0 2.0 0.00 0.00 0.00 87 1015.3
20260510150054 58 255 0.0 2.0 0.00 0.00 0.00 87 1015.2
20260510145546 57 259 0.0 1.0 0.00 0.00 0.00 89 1015.2
20260510145041 57 249 0.0 1.0 0.00 0.00 0.00 89 1015.0
20260510144533 56 286 0.0 1.0 0.00 0.00 0.00 90 1015.1
20260510144028 55 246 0.0 2.0 0.00 0.00 0.00 92 1015.1
20260510143520 56 216 0.0 2.0 0.00 0.00 0.00 93 1014.9
20260510143013 55 74 0.0 1.0 0.00 0.00 0.00 95 1014.8
20260510142508 53 258 0.0 1.0 0.00 0.00 0.00 95 1014.8
20260510142000 54 251 0.0 1.0 0.00 0.00 0.00 95 1014.8
20260510141715 54 138 2.0 3.0 0.00 0.00 0.00 95 1014.7
20260510141437 54 139 1.0 1.0 0.00 0.00 0.00 95 1014.6
20260510140704 54 192 1.0 2.0 0.00 0.00 0.00 95 1014.8
20260510135938 54 209 1.0 1.0 0.00 0.00 0.00 96 1014.8
20260510135429 54 229 0.0 1.0 0.00 0.00 0.00 96 1014.7
20260510134925 54 218 0.0 1.0 0.00 0.00 0.00 96 1014.8
20260510134416 54 295 0.0 1.0 0.00 0.00 0.00 96 1014.8
20260510133908 53 319 1.0 2.0 0.00 0.00 0.00 96 1014.7
20260510133404 54 229 0.0 2.0 0.00 0.00 0.00 97 1014.5
20260510132855 54 47 1.0 1.0 0.00 0.00 0.00 97 1014.5
20260510132350 54 187 1.0 2.0 0.00 0.00 0.00 97 1014.4
20260510132104 54 273 0.0 1.0 0.00 0.00 0.00 98 1014.5
20260510131337 54 215 0.0 1.0 0.00 0.00 0.00 98 1014.5
20260510130830 54 125 0.0 1.0 0.00 0.00 0.00 98 1014.6
20260510130325 54 265 1.0 1.0 0.00 0.00 0.00 98 1014.4
20260510125817 54 248 0.0 1.0 0.00 0.00 0.00 98 1014.5
20260510125308 54 261 0.0 0.0 0.00 0.00 0.00 99 1014.3
20260510124804 54 250 1.0 2.0 0.00 0.00 0.00 98 1014.5
20260510124255 53 248 0.0 1.0 0.00 0.00 0.00 99 1014.4
20260510123751 54 249 0.0 1.0 0.00 0.00 0.00 99 1014.1
20260510123503 53 19 0.0 2.0 0.00 0.00 0.00 99 1014.1
20260510122714 53 257 0.0 0.0 0.00 0.00 0.00 99 1014.1
20260510121724 53 265 0.0 1.0 0.00 0.00 0.00 99 1014.0
20260510121216 53 244 0.0 1.0 0.00 0.00 0.00 99 1013.8
20260510120711 53 245 0.0 1.0 0.00 0.00 0.00 99 1014.0
20260510120204 53 104 2.0 2.0 0.00 0.00 0.00 99 1013.7
20260510115921 53 205 0.0 1.0 0.00 0.00 0.00 99 1013.9
20260510115414 53 257 0.0 1.0 0.00 0.00 0.00 99 1013.8
20260510114906 52 257 0.0 2.0 0.00 0.00 0.00 99 1014.0
20260510114138 52 59 0.0 2.0 0.00 0.00 0.00 99 1013.7
20260510113852 52 212 0.0 1.0 0.00 0.00 0.00 99 1013.6
20260510113120 52 250 0.0 1.0 0.00 0.00 0.00 99 1013.7
20260510112615 52 249 0.0 0.0 0.00 0.00 0.00 99 1013.6
20260510112101 52 122 0.0 1.0 0.00 0.00 0.00 99 1013.5
20260510112040 52 248 0.0 1.0 0.00 0.00 0.00 99 1013.5
20260510111047 52 223 1.0 1.0 0.00 0.00 0.00 99 1013.8
20260510110543 52 244 0.0 0.0 0.00 0.00 0.00 99 1013.8
20260510110038 52 233 0.0 2.0 0.00 0.00 0.00 99 1013.6
20260510105530 52 247 0.0 1.0 0.00 0.00 0.00 99 1013.7
20260510105025 52 256 0.0 0.0 0.00 0.00 0.00 99 1013.5
20260510104517 52 254 0.0 0.0 0.00 0.00 0.00 99 1013.5
20260510104012 52 227 0.0 1.0 0.00 0.00 0.00 99 1013.6
20260510103504 52 245 0.0 1.0 0.00 0.00 0.00 99 1013.6
20260510103218 51 254 0.0 0.0 0.00 0.00 0.00 99 1013.5
20260510102452 51 260 0.0 0.0 0.00 0.00 0.00 99 1013.5
20260510102204 51 250 0.0 1.0 0.00 0.00 0.00 99 1013.7
20260510101701 51 235 0.0 1.0 0.00 0.00 0.00 99 1013.4
20260510100930 51 263 0.0 1.0 0.00 0.00 0.00 99 1013.3
20260510100426 51 256 0.0 0.0 0.00 0.00 0.00 99 1013.5
20260510100143 51 251 0.0 0.0 0.00 0.00 0.00 99 1013.4
20260510095413 51 253 0.0 0.0 0.00 0.00 0.00 99 1013.7
20260510095129 51 250 0.0 0.0 0.00 0.00 0.00 99 1013.6
20260510094400 51 238 0.0 0.0 0.00 0.00 0.00 99 1013.5
20260510093852 51 257 0.0 0.0 0.00 0.00 0.00 99 1013.7
20260510093347 51 267 0.0 0.0 0.00 0.00 0.00 99 1013.6
20260510092840 51 255 0.0 0.0 0.00 0.00 0.00 99 1013.9
20260510092335 51 263 0.0 0.0 0.00 0.00 0.00 99 1013.6
20260510091826 51 249 0.0 0.0 0.00 0.00 0.00 99 1013.6
20260510091542 51 268 0.0 2.0 0.00 0.00 0.00 99 1013.6
20260510091035 51 273 0.0 2.0 0.00 0.00 0.00 99 1013.8
20260510090309 51 301 2.0 2.0 0.00 0.00 0.00 99 1013.6
20260510085804 51 267 0.0 1.0 0.00 0.00 0.00 99 1013.8
20260510085257 51 268 0.0 3.0 0.00 0.00 0.00 99 1013.7
20260510084749 51 262 0.0 0.0 0.00 0.00 0.00 99 1013.8
20260510084244 51 277 0.0 1.0 0.00 0.00 0.00 99 1013.9
20260510083956 51 266 0.0 1.0 0.00 0.00 0.00 99 1014.0
20260510083231 52 260 1.0 1.0 0.00 0.00 0.00 99 1013.7
20260510082723 52 255 0.0 0.0 0.00 0.00 0.00 99 1013.6
20260510082217 52 285 1.0 3.0 0.00 0.00 0.00 99 1013.6
20260510081709 52 282 0.0 1.0 0.00 0.00 0.00 99 1013.2
20260510081204 52 248 0.0 0.0 0.00 0.00 0.00 99 1013.0
20260510080700 52 253 0.0 0.0 0.00 0.00 0.00 99 1012.8
20260510080152 52 244 0.0 0.0 0.00 0.00 0.00 99 1012.8
20260510075907 52 260 0.0 0.0 0.00 0.00 0.00 99 1012.9
20260510075400 52 252 0.0 0.0 0.00 0.00 0.00 99 1012.5
20260510074632 52 246 0.0 0.0 0.00 0.00 0.00 99 1012.8
20260510074127 52 250 0.0 0.0 0.00 0.00 0.00 99 1012.9
20260510073618 52 257 0.0 0.0 0.00 0.00 0.00 99 1013.2
20260510073113 52 256 0.0 0.0 0.00 0.00 0.00 99 1013.0
20260510072828 52 262 0.0 0.0 0.00 0.00 0.00 99 1012.9
20260510072100 52 262 0.0 0.0 0.00 0.00 0.00 99 1013.0
20260510071813 52 264 0.0 0.0 0.00 0.00 0.00 99 1012.9
20260510071044 52 259 0.0 0.0 0.00 0.00 0.00 99 1013.0
20260510070540 52 257 0.0 0.0 0.00 0.00 0.00 99 1012.9
20260510070031 52 257 0.0 0.0 0.00 0.00 0.00 99 1012.8
20260510065526 52 256 0.0 0.0 0.00 0.00 0.00 99 1013.0
20260510065238 52 262 0.0 0.0 0.00 0.00 0.00 99 1012.9
20260510064513 52 262 0.0 0.0 0.00 0.00 0.00 99 1012.9
20260510064005 52 262 0.0 0.0 0.00 0.00 0.00 99 1013.2
20260510063720 52 259 0.0 0.0 0.00 0.00 0.00 99 1013.1
20260510062952 52 261 0.0 0.0 0.00 0.00 0.00 99 1012.7
20260510062444 52 253 0.0 0.0 0.00 0.00 0.00 99 1012.9
20260510061939 52 261 0.0 0.0 0.00 0.00 0.00 99 1012.6
20260510061431 52 280 0.0 0.0 0.00 0.00 0.00 99 1012.7
20260510060927 52 267 0.0 0.0 0.00 0.00 0.00 99 1012.5
20260510060421 52 254 0.0 0.0 0.00 0.00 0.00 99 1012.8
20260510060133 52 185 0.0 0.0 0.00 0.00 0.00 99 1012.5
20260510055409 52 238 0.0 0.0 0.00 0.00 0.00 99 1012.7
20260510054901 52 176 1.0 1.0 0.00 0.00 0.00 99 1012.7
20260510054356 52 253 0.0 0.0 0.00 0.00 0.00 99 1012.9
20260510054109 52 252 0.0 0.0 0.00 0.00 0.00 99 1012.9
20260510053340 52 262 0.0 0.0 0.00 0.00 0.00 99 1012.9
20260510052835 52 254 0.0 0.0 0.00 0.00 0.00 99 1012.8
20260510052327 52 246 0.0 1.0 0.00 0.00 0.00 99 1012.9
20260510052044 52 246 0.0 0.0 0.00 0.00 0.00 99 1012.7
20260510051314 52 266 0.0 0.0 0.00 0.00 0.00 99 1013.0
20260510050809 52 267 0.0 0.0 0.00 0.00 0.00 99 1013.0
20260510050301 52 265 0.0 0.0 0.00 0.00 0.00 99 1012.8
20260510045756 52 265 0.0 0.0 0.00 0.00 0.00 99 1013.1
20260510045248 52 247 0.0 0.0 0.00 0.00 0.00 99 1013.0
20260510044740 52 220 0.0 0.0 0.00 0.00 0.00 99 1013.0
20260510044719 52 255 0.0 0.0 0.00 0.00 0.00 99 1013.0
20260510043722 52 261 0.0 0.0 0.00 0.00 0.00 99 1013.0
20260510043435 52 257 0.0 0.0 0.00 0.00 0.00 99 1013.0
20260510042709 52 259 0.0 0.0 0.00 0.00 0.00 99 1013.0
20260510042204 52 245 0.0 0.0 0.00 0.00 0.00 99 1012.6
20260510041656 52 254 0.0 0.0 0.00 0.00 0.00 99 1012.8
20260510041150 52 217 0.0 1.0 0.00 0.00 0.00 99 1012.8
20260510040637 52 261 0.0 0.0 0.00 0.00 0.00 99 1012.8
20260510040352 52 259 0.0 0.0 0.00 0.00 0.00 99 1012.7
20260510035118 52 259 0.0 0.0 0.00 0.00 0.34 99 1012.6
20260510034610 52 242 0.0 1.0 0.00 0.00 0.34 99 1012.5
20260510034105 52 250 0.0 0.0 0.00 0.00 0.34 99 1012.5
20260510033557 52 255 0.0 0.0 0.00 0.00 0.34 99 1012.5
20260510033052 52 260 0.0 0.0 0.00 0.00 0.34 99 1012.6
20260510032544 52 260 0.0 0.0 0.00 0.00 0.34 99 1012.5
20260510032259 52 259 0.0 0.0 0.00 0.00 0.34 99 1012.4
20260510031531 53 257 0.0 0.0 0.00 0.00 0.34 99 1012.4
20260510031023 53 264 0.0 0.0 0.00 0.00 0.34 99 1012.6
20260510030519 53 258 0.0 0.0 0.00 0.00 0.34 99 1012.6
20260510030014 53 258 0.0 0.0 0.00 0.00 0.34 99 1012.9
20260510025506 53 260 0.0 0.0 0.00 0.00 0.34 99 1012.9
20260510025001 53 258 0.0 0.0 0.00 0.00 0.34 99 1013.1
20260510024448 53 258 0.0 0.0 0.00 0.00 0.34 99 1012.8
20260510023943 53 260 0.0 0.0 0.00 0.00 0.34 99 1012.6
20260510023435 53 252 0.0 0.0 0.00 0.00 0.34 99 1012.9
20260510022930 53 236 0.0 1.0 0.00 0.00 0.34 99 1013.0
20260510022421 53 275 0.0 1.0 0.00 0.00 0.34 99 1012.9
20260510021916 53 251 0.0 0.0 0.00 0.00 0.34 99 1012.8
20260510021403 53 246 0.0 0.0 0.00 0.00 0.34 99 1012.8
20260510020858 53 252 0.0 1.0 0.00 0.00 0.34 99 1012.6
20260510020610 53 118 1.0 2.0 0.00 0.00 0.34 99 1012.6
20260510015846 53 252 0.0 0.0 0.00 0.00 0.34 99 1012.6
20260510015338 53 245 0.0 1.0 0.00 0.00 0.34 99 1012.7
20260510014833 53 255 0.0 1.0 0.00 0.00 0.34 99 1012.9
20260510014325 53 151 1.0 1.0 0.00 0.00 0.34 99 1012.9
20260510013816 53 242 0.0 2.0 0.00 0.00 0.34 99 1012.6
20260510013531 53 234 1.0 1.0 0.00 0.00 0.34 99 1012.6
20260510012802 53 216 0.0 2.0 0.00 0.00 0.34 99 1012.7
20260510012517 53 243 0.0 0.0 0.00 0.00 0.34 99 1012.5
20260510011744 53 86 1.0 2.0 0.00 0.00 0.34 99 1012.4
20260510011239 53 254 0.0 2.0 0.00 0.00 0.34 99 1012.4
20260510010732 53 298 0.0 0.0 0.00 0.00 0.34 99 1012.2
20260510010227 53 227 0.0 1.0 0.00 0.00 0.34 99 1012.3
20260510005719 53 284 0.0 1.0 0.00 0.00 0.34 99 1012.4
20260510005214 53 180 0.0 1.0 0.00 0.00 0.34 99 1012.3
20260510004706 53 252 0.0 1.0 0.00 0.00 0.34 99 1012.3
20260510004200 53 261 0.0 0.0 0.00 0.00 0.34 98 1012.2
20260510003653 53 116 1.0 1.0 0.00 0.00 0.34 98 1012.0
20260510003149 53 248 0.0 0.0 0.00 0.00 0.34 98 1012.2
20260510002640 53 250 0.0 0.0 0.00 0.00 0.34 98 1012.1
20260510002132 53 264 0.0 0.0 0.00 0.00 0.34 98 1012.0
20260510001627 53 139 0.0 0.0 0.01 0.00 0.34 98 1012.1
20260510001332 53 261 0.0 1.0 0.01 0.00 0.34 98 1012.1
20260510000607 53 232 0.0 0.0 0.02 0.00 0.34 98 1012.1
20260510000100 53 265 0.0 0.0 0.02 0.00 0.34 98 1012.0
20260509235556 53 247 0.0 0.0 0.03 0.00 0.34 98 1012.1
20260509235047 53 267 0.0 0.0 0.03 0.00 0.34 98 1012.1
20260509234542 53 266 0.0 0.0 0.04 0.00 0.34 98 1012.2
20260509234035 53 283 0.0 0.0 0.05 0.00 0.34 98 1011.9
20260509233529 53 276 0.0 1.0 0.07 0.00 0.34 98 1011.9
20260509233021 53 272 0.0 3.0 0.09 0.00 0.34 98 1012.0
20260509232516 53 266 0.0 1.0 0.10 0.00 0.34 98 1011.9
20260509232008 54 43 1.0 3.0 0.11 0.00 0.33 98 1011.9
20260509231500 54 204 1.0 2.0 0.13 0.00 0.33 98 1012.3
20260509230955 54 117 1.0 2.0 0.12 0.00 0.32 98 1012.1
20260509230707 54 160 2.0 3.0 0.13 0.00 0.32 98 1012.2
20260509225942 54 276 1.0 2.0 0.13 0.00 0.32 98 1012.1
20260509225434 54 154 1.0 2.0 0.13 0.00 0.31 98 1012.4
20260509224929 55 91 1.0 3.0 0.13 0.00 0.30 98 1012.6
20260509224421 55 82 0.0 1.0 0.14 0.00 0.30 98 1012.8
20260509223916 55 243 0.0 0.0 0.12 0.00 0.28 98 1012.7
20260509223628 55 182 1.0 1.0 0.11 0.00 0.26 98 1012.8
20260509222900 55 284 0.0 1.0 0.09 0.00 0.24 98 1012.7
20260509222355 55 250 0.0 1.0 0.08 0.00 0.23 97 1012.7
20260509221847 55 273 1.0 1.0 0.06 0.00 0.21 97 1013.1
20260509221342 55 274 0.0 0.0 0.05 0.00 0.20 98 1012.9
20260509220827 55 254 0.0 0.0 0.04 0.00 0.19 97 1012.7
20260509220323 55 270 0.0 0.0 0.04 0.00 0.19 97 1012.6
20260509215815 56 224 0.0 0.0 0.04 0.00 0.18 97 1012.5
20260509215310 55 174 0.0 0.0 0.04 0.00 0.18 97 1012.8
20260509214802 55 243 0.0 0.0 0.03 0.00 0.17 97 1012.9
20260509214257 55 257 0.0 0.0 0.02 0.00 0.16 97 1013.0